2018-083B (43663 NORAD) Tracking and Keplerian Element Data

This shows tracking and keplerian element data for the satellite.

Feedback or suggestion? Click here.




ElementValue
Catalog43663
Name2018-083B
Epoch Orbit460
Epoch Day332.45527076
Epoch Year2018
RAAN353.1135
Inclination97.5296
Eccentricity0.0011517
Argument of Perigee154.7952
Mean Anonmoly356.4208
Mean Motion15.16444916
Decay Rate7.45E-06
L11 43663U 18083B 18332.45527076 .00000745 00000-0 41722-4 0 9991
L22 43663 97.5296 353.1135 0011517 154.7952 356.4208 15.16444916 4600

Live tracking and technical data element details for 2018-083B (NORAD 43663). 2018-083B can be tracked NOW for your location showing map with azimuth and elevation plus other details from your city location.

Track the satellite on the map from your city or location and see movement details for azimuth, elevation, latitude, longitude, range, height, and movement on the map or in text.







IsCatalogInMostPopularTable: catalog: 43663, numindb: 114
Update: records affected: 1



GetName: 43663 2018-083B

Hit Count: updated at: Sat, 20 Jul 2019 22:04:51 GMT